Regional Weather Roundup
Issued by NWS

Home | Current Version | Previous Version | Graphics & Text | Print | Product List | Glossary On
Versions: 1 2 3 4 5 6 7 8 9 10 11 12 13 14 15 16 17 18 19 20 21 22 23 24 25 26 27
000
ASUS45 KTFX 281810
RWRMT
MONTANA REGIONAL WEATHER ROUNDUP
NATIONAL WEATHER SERVICE GREAT FALLS MT
1200 PM MDT WED SEP 28 2016

NOTE: "FAIR" INDICATES FEW OR NO CLOUDS BELOW 12000 FEET WITH NO
SIGNIFICANT WEATHER AND/OR OBSTRUCTIONS TO VISIBILITY.

MTZ001>007-043-281900-
WEST OF THE DIVIDE

CITY           SKY/WX    TMP DP  RH WIND       PRES   REMARKS
KALISPELL      SUNNY     67  41  38 N10       30.12F
MISSOULA       SUNNY     69  46  43 SE12      30.12F
BUTTE          SUNNY     67  40  37 S14       30.25F
MULLAN PASS    SUNNY     59  43  55 SE8       30.19F
ANACONDA         N/A     70  41  35 SE9       30.21F
DEER LODGE       N/A     70  43  37 SE8       30.21F
EUREKA           N/A     64  37  36 CALM      30.15F
HAMILTON         N/A     64  46  52 CALM      30.13F
LIBBY            N/A     63  45  51 NW3       30.11F
PLAINS           N/A     69  47  45 CALM      30.09F
RONAN            N/A     68  45  43 N7        30.15F
THOMPSON FALLS   N/A     68  49  50 E6        30.11
$$

MTZ008-052>055-281900-
SOUTHWEST MONTANA

CITY           SKY/WX    TMP DP  RH WIND       PRES   REMARKS
BOZEMAN        SUNNY     61  46  57 N5        30.25F
DILLON         SUNNY     61  41  47 N5        30.25F
W YELLOWSTONE  SUNNY     59  37  44 E3        30.35F
ENNIS          SUNNY     61  41  48 CALM      30.31F
THREE FORKS      N/A     62  62 100 SW2       30.22F
TWIN BRIDGES     N/A     64  42  44 N7        30.21F
$$

MTZ009-010-012-014-046-048-049-054-281900-
EAST SLOPES AND CENTRAL MONTANA

CITY           SKY/WX    TMP DP  RH WIND       PRES   REMARKS
CUT BANK       MOSUNNY   54  37  52 SE10      30.27F
GREAT FALLS    SUNNY     56  39  53 W5        30.27F
MALMSTROM AFB  SUNNY     54  41  62 W2        30.27F
HELENA         SUNNY     61  40  45 N5        30.24F
AUGUSTA          N/A     53  40  61 S3        30.26F
BOWMANS CRNR     N/A     52  40  64 E5        30.24F
CHOTEAU          N/A     57  39  51 CALM      30.28F
CONRAD           N/A     55  46  71 NE1       30.26F
FAIRFIELD        N/A     55  38  54 W3        30.26F
POWER            N/A     54  40  58 W2        30.25F
RAYNESFORD       N/A     57  44  63 E15G22    30.26F
$$

MTZ011-013-016-021-045-047-050-051-281900-
NORTH CENTRAL MONTANA

CITY           SKY/WX    TMP DP  RH WIND       PRES   REMARKS
HAVRE          SUNNY     60  45  57 E14       30.28F
LEWISTOWN      SUNNY     61  45  55 E15       30.27F
N BAR RANCH      N/A     61  45  55 SE5       30.32F
CHINOOK          N/A     57  45  62 E9        30.29F
DENTON           N/A     60  46  61 E9        30.24F
GEYSER           N/A     53  40  61 S3        30.26F
GRASS RANGE      N/A     59  46  63 E6        30.26F
JUDITH GAP       N/A     59  46  61 S18G26    30.29F
ROY              N/A     58  48  68 MISG      30.28F
STANFORD         N/A     58  47  67 SE12      30.27F
WINIFRED         N/A     58  47  65 MISG      30.27F
$$

MTZ017>020-022>027-061-062-281900-
NORTHEAST MONTANA

CITY           SKY/WX    TMP DP  RH WIND       PRES   REMARKS
GLASGOW        SUNNY     64  46  52 VRB7      30.27F
JORDAN           N/A     63  47  55 E6        30.28F
SIDNEY         SUNNY     62  50  64 CALM      30.26F
WOLF POINT     SUNNY     64  47  53 NW3       30.27F
PLENTYWOOD       N/A     63  46  55 NE10      30.26F
POPLAR           N/A     63  48  59 NE5       30.27F
SCOBEY           N/A     63  44  49 N13       30.24F
$$

MTZ028>42-056>058-281900-
SOUTHCENTRAL AND SOUTHEAST MONTANA

CITY           SKY/WX    TMP DP  RH WIND       PRES   REMARKS
BAKER          SUNNY     66  51  58 NW5       30.27F
BILLINGS       SUNNY     60  46  59 NE7       30.29F
LIVINGSTON     SUNNY     61  46  57 NE13      30.28F
MILES CITY     SUNNY     65  49  56 VRB5      30.27F
BIG TIMBER     SUNNY     59  46  63 E7        30.31F
EKALAKA          N/A     72  51  47 N5        30.24S
FORSYTH          N/A     63  52  67 CALM      30.27F
HARLOWTON        N/A     59  46  62 SE7       30.29F
LAUREL           N/A     61  46  57 NE5       30.25F
ROUNDUP          N/A     59  44  57 N5        30.18F
$$

REGIONAL REPORTS...DAKOTAS

CITY           SKY/WX    TMP DP  RH WIND       PRES   REMARKS
WILLISTON      SUNNY     64  49  57 N5        30.26F
MINOT          SUNNY     66  42  41 E9        30.28R
DICKINSON      SUNNY     69  47  45 SE9       30.25R
BEACH            N/A     64  54  68 N6        30.30S
CROSBY           N/A     63  45  51 N6        30.29S
WATFORD CITY     N/A     64  50  59 E3        30.26F
BISMARCK       SUNNY     64  43  46 SE7       30.29S
GRAND FORKS    CLOUDY    58  45  62 CALM      30.31S
FARGO          CLOUDY    57  47  69 NW3       30.30R
BUFFALO SD       N/A     77  50  38 CALM      30.19S
RAPID CITY     SUNNY     77  46  33 N9        30.26S
$$

REGIONAL REPORTS...WYOMING/IDAHO/WASHINGTON

CITY           SKY/WX    TMP DP  RH WIND       PRES   REMARKS
GILLETTE       SUNNY     75  43  31 SE9       30.31S
SHERIDAN       SUNNY     70  47  43 N3        30.29F
CODY           SUNNY     63  46  55 NE5       30.32F
YELLOWSTONE LA   N/A     62  37  39 E3        30.43F
IDAHO FALLS    SUNNY     69  47  45 NW5       30.22F
BOISE          SUNNY     77  42  28 S9        30.04F
SPOKANE        MOSUNNY   66  42  41 NE6       30.04F
$$

REGIONAL REPORTS...ALBERTA

CITY           SKY/WX    TMP DP  RH WIND       PRES   REMARKS
EDMONTON       PTSUNNY   54  32  43 SE12      30.31F
CALGARY        PTSUNNY   52  34  50 SE24      30.26F
LETHBRIDGE     PTSUNNY   54  39  58 SE8       30.27F
MEDICINE HAT   PTSUNNY   59  41  51 E15       30.29F
WATERTON GATE    N/A     55  36  47 N7          N/A
MILK RIVER       N/A     50  39  66 N2          N/A
ONEFOUR          N/A     59  41  51 E14G20      N/A
$$

REGIONAL REPORTS...SASKATCHEWAN

CITY           SKY/WX    TMP DP  RH WIND       PRES   REMARKS
SWIFT CURRENT  MOSUNNY   57  34  41 E15G22    30.32F
REGINA         MOSUNNY   61  45  55 NE13G20   30.30F
SASKATOON      PTSUNNY   57  39  51 CALM      30.39S
CYPRESS HILLS    N/A     54  34  47 SE9G17      N/A
VAL MARIE        N/A     63  43  48 E8          N/A
ROCKGLEN         N/A     57  45  62 N10         N/A
$$




USA.gov is the U.S. government's official web portal to all federal, state and local government web resources and services.